Wind_Speed
8 7 7 7 7 7 7 8 9 10 10 11 10 10 10 10 12 13 14 14 15 16 16 17 18 17 16 16 15 15 15 16 17 17 16 16 16 16 16 17 17 18 19 20
6 7 8 8 7 6 7 9 10 10 10 12 12 12 12 11 11 12 13 14 15 16 16 17 17 16 16 16 16 15 16 17 17 17 17 17 17 16 17 17 17 19 20 20
5 6 8 8 8 6 6 8 9 10 11 12 13 12 11 10 11 12 13 14 15 16 16 16 16 17 16 16 15 16 17 18 18 18 18 17 17 18 18 19 19 19 19 18
6 7 7 7 7 6 7 8 9 10 12 13 13 13 12 12 12 13 13 13 15 16 16 16 17 16 16 17 16 16 17 18 18 19 19 18 18 19 19 19 19 18 17 18
6 7 7 8 7 7 8 10 10 11 13 14 14 15 13 13 12 13 13 14 15 16 17 17 17 17 17 17 17 17 18 18 18 19 19 19 19 19 19 18 17 17 17 18
7 8 8 8 7 7 8 10 11 12 13 14 13 14 13 12 12 12 12 13 16 16 16 16 17 18 18 18 17 18 19 19 20 20 20 19 19 19 18 18 18 18 18 18
7 8 7 8 8 8 9 10 11 12 13 12 12 13 12 10 10 11 12 14 16 16 16 16 17 18 19 19 19 19 19 20 20 20 19 19 19 18 18 18 18 18 18 18
7 8 7 8 9 8 10 10 11 11 12 11 12 13 11 10 11 11 12 15 16 17 17 17 18 18 18 20 20 20 19 19 19 19 19 19 17 17 17 18 17 17 18 18
8 7 8 9 10 10 10 10 10 11 12 12 11 11 11 10 11 12 13 15 16 17 17 18 18 19 18 19 20 19 19 19 19 19 19 18 17 17 18 18 17 18 17 18
10 10 9 10 11 11 10 11 12 12 12 13 11 10 10 12 13 13 14 15 16 17 17 18 19 20 20 20 20 19 19 18 18 19 19 17 17 18 18 18 19 18 18 18
12 11 11 12 12 11 11 11 12 13 13 13 13 11 11 12 13 14 15 16 16 17 17 18 19 19 19 19 19 19 19 18 18 19 18 18 18 18 18 19 19 18 18 18
13 13 13 13 12 12 11 12 12 13 13 13 14 13 12 13 14 15 15 16 16 17 18 18 18 18 18 19 19 19 19 19 19 19 18 18 18 18 19 19 19 18 17 17
15 15 15 14 13 13 13 13 13 13 13 14 14 14 14 14 15 15 15 16 17 18 18 17 17 17 18 18 19 19 19 19 19 19 19 19 19 18 19 19 19 19 18 17
17 16 17 16 15 14 14 14 14 14 14 15 15 15 15 15 14 15 15 16 16 17 17 17 17 18 18 19 20 20 19 19 19 19 19 18 18 18 19 19 19 19 18 17
19 18 17 17 17 16 16 15 15 15 15 15 15 16 16 15 15 16 16 16 16 17 17 17 17 17 19 20 20 19 19 19 19 19 18 17 17 17 18 18 18 18 17 16
20 20 19 17 17 18 18 17 16 16 16 16 16 16 16 16 16 16 17 17 17 17 17 17 17 18 19 20 20 20 20 20 20 19 18 18 18 18 18 18 17 17 16 16
21 21 21 21 20 19 19 18 18 18 17 17 17 16 16 16 16 16 16 17 16 16 17 17 18 18 19 20 20 20 20 19 19 19 19 19 18 18 18 17 17 17 18 18
23 23 23 23 22 21 19 19 19 19 19 19 18 18 18 17 17 17 17 17 17 17 17 17 18 18 19 20 20 20 20 19 19 19 19 19 19 18 17 17 17 18 18 18
24 24 24 24 24 23 21 21 20 20 20 20 19 19 18 18 17 17 18 18 18 18 18 18 18 19 19 19 19 19 19 19 19 19 20 20 20 18 18 18 18 18 19 19
25 25 25 25 25 24 22 22 23 22 22 21 21 20 19 19 18 18 19 18 19 18 18 18 18 19 19 19 19 18 19 19 19 20 20 20 20 19 18 18 19 19 19 20
26 26 26 26 26 25 24 23 23 24 23 22 22 21 20 19 19 19 19 18 19 19 18 18 18 19 19 19 19 19 19 20 20 21 20 21 20 19 19 19 20 20 20 21
26 27 27 26 26 26 25 24 23 23 23 23 22 21 21 20 20 20 19 19 19 19 19 18 19 19 19 20 19 19 20 20 21 21 21 21 21 21 20 20 20 21 21 22
27 27 27 27 26 25 24 24 23 23 23 23 23 22 21 21 20 20 20 19 18 18 19 19 19 20 20 20 19 20 20 20 20 21 22 22 22 22 21 21 21 22 22 22
28 28 28 28 28 26 25 24 24 23 24 23 23 22 22 22 22 21 21 20 19 19 20 20 20 20 20 20 20 20 20 20 21 21 21 22 23 23 22 22 21 21 22 22
29 30 29 29 28 27 26 26 25 23 24 24 23 22 22 22 22 22 21 21 21 21 21 21 21 21 21 21 21 22 21 22 22 22 23 23 23 23 22 22 22 22 22 22
30 30 30 30 29 29 29 28 26 25 23 22 22 22 22 22 22 22 22 21 21 22 22 22 22 22 22 22 22 22 22 22 23 23 23 23 23 23 23 22 22 22 22 22
Wind_Direction
225 231 236 243 237 237 244 257 265 268 267 270 278 286 291 301 312 318 322 325 326 328 328 326 324 326 328 326 324 320 319 318 316 315 312 309 308 305 297 292 289 288 285 282
229 231 236 241 233 236 252 265 269 274 276 272 277 281 288 297 307 312 321 329 331 327 327 324 322 325 325 326 324 321 320 319 317 314 312 309 308 307 302 296 292 290 288 284
234 228 237 240 233 230 253 271 271 276 272 279 282 281 282 293 300 306 316 322 326 327 327 328 325 326 325 324 322 322 323 320 317 314 313 311 309 308 305 302 300 298 294 289
231 230 239 246 250 256 259 268 275 279 281 283 279 276 278 287 297 309 312 317 322 326 330 329 328 329 328 326 327 326 324 323 321 318 315 312 310 307 306 306 304 301 297 293
235 238 248 254 254 255 257 265 272 273 274 274 272 275 281 285 294 310 313 316 320 320 325 328 330 329 326 325 326 326 326 325 323 321 318 312 309 307 306 304 304 304 303 300
240 243 251 257 256 261 265 269 269 269 269 270 272 278 287 291 295 307 317 318 318 320 323 328 329 329 326 326 326 326 328 327 326 323 321 317 312 309 306 303 303 302 300 299
239 238 245 255 261 267 270 272 269 267 269 270 273 280 289 290 294 303 310 315 319 323 325 326 328 328 329 329 327 327 326 325 325 325 321 320 318 314 309 305 304 301 300 300
248 237 243 257 265 269 271 271 269 271 277 272 273 276 288 290 296 306 315 317 318 322 323 322 324 327 327 328 329 328 326 325 326 326 325 323 321 319 316 313 310 306 304 302
258 249 249 260 268 274 275 272 272 274 281 280 273 275 288 296 300 313 319 317 316 319 321 323 326 326 326 328 329 329 327 326 325 326 326 325 323 321 320 318 314 310 306 303
258 258 253 259 265 276 278 274 271 274 280 280 284 291 297 303 307 310 312 311 312 315 318 321 325 327 327 327 327 328 328 327 326 326 327 326 326 326 322 320 318 313 307 305
258 262 253 254 263 270 274 270 269 275 279 279 282 291 299 309 310 307 308 309 310 311 316 319 322 325 325 326 326 325 327 326 324 325 327 327 325 324 324 323 321 316 310 308
254 259 257 257 259 261 265 267 269 274 277 278 283 290 298 301 306 309 310 312 313 314 318 320 320 324 325 327 327 327 326 327 324 324 325 325 324 324 325 324 323 319 315 313
249 254 255 254 254 258 261 267 268 271 277 280 283 289 294 297 300 305 310 316 317 316 318 322 324 326 327 328 328 327 326 326 326 324 323 323 323 323 325 324 322 321 318 316
250 252 255 256 258 258 262 266 264 268 274 279 283 287 292 295 298 304 309 312 313 316 319 322 325 325 326 331 331 328 328 327 325 324 322 322 322 322 324 324 323 322 321 319
251 253 255 255 256 260 263 266 266 266 271 277 282 286 288 293 298 303 306 307 311 317 322 324 325 327 329 332 331 329 330 329 328 327 324 322 323 322 323 324 324 324 323 322
250 251 254 253 254 258 263 268 269 269 268 273 278 281 284 288 293 301 304 307 312 317 318 321 323 325 327 329 331 331 331 329 329 328 326 323 321 321 322 325 328 327 326 324
251 252 253 254 257 260 262 265 267 267 268 272 276 280 284 288 293 298 303 307 309 313 314 316 319 322 325 327 329 331 332 331 332 330 328 325 322 321 322 324 324 325 325 324
252 254 256 257 259 259 264 265 267 269 271 272 272 277 283 288 291 294 297 300 303 306 309 312 315 318 321 325 327 327 329 329 330 330 328 326 323 322 322 322 322 322 323 324
255 256 258 260 261 262 264 266 269 271 272 272 273 275 278 281 286 289 291 294 298 300 303 306 312 316 318 322 324 325 326 325 325 327 328 327 325 321 320 321 320 321 323 323
253 254 256 260 263 265 266 268 270 272 271 270 270 273 274 277 279 283 287 289 295 299 300 304 311 315 315 319 322 324 326 325 323 324 326 326 326 322 319 320 319 320 321 321
253 254 256 259 262 263 266 267 267 267 270 270 269 269 271 274 276 279 283 288 293 296 298 302 308 311 313 316 319 322 323 323 322 321 322 323 324 322 318 318 316 316 317 318
254 256 257 257 258 260 264 266 265 266 267 268 269 269 270 272 274 276 280 284 288 290 293 297 303 308 312 315 317 319 321 321 320 319 319 320 320 320 317 314 314 314 315 316
253 254 254 255 257 261 263 265 265 265 266 266 266 266 268 271 274 276 277 281 285 288 293 297 300 304 308 310 312 314 317 318 318 318 318 318 318 318 317 315 315 313 313 314
251 252 254 256 258 261 264 265 264 266 267 266 264 264 265 269 273 276 278 281 284 287 290 294 297 301 304 305 308 311 313 314 314 313 315 317 317 317 317 316 314 313 313 315
252 253 254 256 258 259 261 263 264 265 266 264 263 262 263 265 268 272 277 279 282 285 287 289 293 297 300 303 304 308 310 313 314 314 315 316 317 317 317 316 315 313 313 314
252 254 255 255 256 258 259 262 263 263 264 264 263 264 266 267 268 271 274 276 279 282 285 288 291 294 297 301 305 307 309 311 312 313 314 313 315 315 315 314 314 312 311 310
Height
5861 5863 5863 5863 5863 5863 5864 5864 5864 5864 5864 5863 5863 5863 5863 5862 5861 5859 5857 5855 5853 5850 5848 5846 5843 5839 5836 5833 5831 5828 5826 5823 5820 5818 5816 5813 5811 5810 5808 5806 5804 5803 5802 5800
5860 5860 5861 5860 5860 5860 5861 5861 5861 5861 5861 5860 5860 5860 5859 5859 5858 5856 5854 5852 5851 5848 5846 5843 5840 5837 5834 5830 5828 5825 5822 5820 5817 5814 5811 5809 5807 5805 5803 5801 5799 5798 5796 5794
5858 5859 5858 5858 5858 5858 5859 5859 5859 5859 5858 5858 5857 5856 5856 5856 5855 5854 5852 5849 5847 5845 5843 5841 5838 5835 5832 5829 5825 5823 5819 5816 5813 5810 5807 5805 5803 5800 5798 5796 5794 5792 5790 5789
5856 5856 5856 5856 5856 5856 5856 5856 5856 5856 5856 5855 5855 5854 5854 5853 5852 5850 5848 5847 5845 5843 5841 5838 5835 5832 5829 5826 5823 5820 5816 5813 5810 5806 5803 5801 5798 5796 5794 5791 5789 5787 5785 5784
5854 5854 5854 5853 5854 5854 5854 5854 5853 5853 5852 5852 5851 5850 5851 5849 5848 5847 5845 5844 5842 5841 5838 5835 5832 5829 5827 5824 5820 5816 5813 5809 5806 5802 5799 5796 5794 5792 5789 5787 5785 5783 5781 5779
5852 5852 5851 5851 5851 5851 5851 5851 5850 5850 5850 5849 5849 5847 5847 5846 5845 5844 5843 5841 5840 5838 5835 5832 5830 5827 5823 5820 5816 5812 5809 5805 5802 5798 5795 5792 5790 5787 5785 5783 5780 5778 5776 5774
5850 5850 5850 5849 5849 5849 5849 5848 5848 5847 5847 5846 5846 5844 5844 5843 5842 5841 5840 5838 5836 5834 5832 5829 5827 5824 5820 5816 5812 5808 5805 5802 5798 5795 5791 5788 5785 5783 5780 5778 5776 5773 5771 5769
5846 5847 5847 5846 5846 5846 5846 5846 5846 5845 5844 5843 5842 5841 5841 5840 5839 5838 5837 5835 5833 5831 5829 5826 5824 5820 5817 5813 5808 5805 5802 5798 5795 5791 5788 5784 5781 5778 5776 5773 5771 5768 5766 5764
5843 5845 5845 5844 5843 5843 5842 5842 5842 5841 5840 5840 5839 5839 5838 5837 5836 5835 5833 5832 5830 5828 5825 5823 5820 5817 5813 5809 5806 5802 5798 5795 5791 5788 5784 5781 5778 5775 5772 5769 5766 5764 5761 5759
5841 5842 5842 5841 5840 5840 5839 5839 5838 5838 5837 5836 5836 5836 5836 5835 5833 5832 5830 5829 5827 5824 5822 5819 5816 5813 5810 5806 5802 5799 5795 5791 5788 5785 5781 5777 5774 5771 5768 5765 5762 5759 5757 5754
5837 5838 5839 5838 5838 5837 5836 5836 5835 5834 5834 5834 5833 5835 5833 5831 5830 5829 5827 5825 5823 5821 5819 5816 5813 5810 5806 5803 5799 5796 5792 5789 5785 5781 5778 5774 5771 5768 5765 5762 5758 5755 5752 5750
5834 5834 5834 5835 5835 5834 5833 5833 5832 5832 5831 5831 5830 5833 5829 5828 5827 5825 5824 5821 5819 5817 5814 5812 5809 5806 5803 5799 5796 5792 5789 5785 5782 5778 5775 5771 5768 5765 5762 5758 5755 5752 5749 5746
5830 5830 5830 5831 5832 5831 5830 5829 5828 5828 5828 5827 5826 5829 5825 5824 5823 5821 5820 5818 5816 5813 5811 5808 5806 5803 5800 5796 5793 5789 5786 5782 5778 5775 5771 5768 5765 5762 5758 5755 5751 5748 5745 5742
5826 5826 5827 5827 5827 5826 5826 5825 5825 5824 5824 5823 5823 5822 5821 5820 5819 5818 5816 5814 5812 5810 5807 5805 5803 5799 5796 5793 5790 5786 5783 5779 5775 5772 5768 5765 5762 5758 5755 5752 5748 5745 5742 5739
5821 5821 5821 5822 5822 5822 5821 5821 5821 5820 5820 5820 5819 5818 5817 5816 5815 5814 5812 5811 5809 5807 5805 5802 5800 5797 5794 5791 5787 5783 5780 5776 5772 5769 5765 5762 5759 5755 5752 5749 5745 5742 5739 5736
5815 5816 5817 5817 5817 5817 5817 5817 5816 5815 5815 5815 5814 5814 5814 5813 5812 5810 5809 5807 5805 5803 5802 5800 5797 5794 5791 5788 5784 5780 5777 5773 5769 5765 5762 5759 5756 5753 5749 5746 5742 5739 5736 5733
5810 5811 5811 5812 5812 5812 5813 5813 5811 5811 5810 5810 5810 5810 5809 5808 5807 5806 5805 5804 5802 5800 5798 5796 5794 5791 5788 5785 5781 5778 5774 5770 5766 5763 5759 5756 5753 5749 5746 5743 5739 5736 5733 5729
5804 5804 5805 5806 5807 5807 5810 5807 5806 5806 5805 5805 5805 5805 5805 5804 5803 5802 5801 5800 5798 5796 5795 5793 5790 5788 5785 5782 5778 5775 5771 5767 5764 5760 5757 5753 5750 5746 5743 5740 5736 5733 5729 5726
5797 5798 5798 5799 5799 5801 5803 5802 5801 5800 5800 5800 5800 5800 5800 5799 5799 5798 5797 5796 5794 5792 5790 5788 5786 5784 5781 5778 5775 5772 5768 5765 5761 5757 5754 5750 5746 5743 5740 5736 5733 5730 5726 5723
5790 5791 5792 5792 5792 5793 5796 5796 5795 5795 5794 5795 5795 5795 5795 5794 5794 5794 5792 5791 5790 5788 5786 5784 5782 5780 5777 5774 5771 5768 5765 5761 5758 5754 5750 5747 5743 5740 5736 5733 5729 5726 5723 5719
5783 5783 5784 5785 5785 5786 5788 5788 5789 5790 5790 5789 5789 5789 5789 5789 5789 5788 5787 5786 5785 5783 5781 5780 5778 5776 5773 5770 5767 5764 5761 5757 5754 5750 5747 5744 5740 5736 5733 5729 5726 5722 5719 5715
5775 5776 5777 5777 5778 5781 5781 5781 5782 5782 5781 5781 5782 5782 5783 5783 5782 5782 5781 5780 5779 5778 5776 5775 5773 5771 5768 5766 5763 5760 5757 5754 5750 5747 5743 5740 5736 5732 5729 5725 5722 5718 5714 5711
5766 5768 5768 5770 5772 5772 5772 5773 5773 5773 5774 5774 5775 5775 5776 5776 5776 5776 5775 5774 5774 5772 5771 5769 5767 5766 5764 5761 5758 5756 5753 5749 5746 5743 5739 5735 5732 5728 5724 5720 5717 5713 5710 5706
5758 5759 5760 5761 5763 5764 5764 5765 5766 5766 5767 5767 5767 5768 5769 5769 5770 5769 5769 5768 5767 5766 5765 5763 5762 5760 5758 5756 5753 5750 5748 5745 5741 5738 5734 5730 5727 5723 5719 5715 5712 5708 5704 5701
5750 5750 5751 5753 5754 5755 5756 5757 5758 5758 5759 5759 5760 5761 5761 5762 5762 5762 5762 5761 5760 5759 5758 5757 5755 5754 5752 5750 5747 5745 5742 5739 5736 5733 5729 5725 5722 5718 5714 5710 5707 5703 5700 5696
5740 5741 5742 5744 5746 5747 5749 5749 5750 5751 5752 5753 5753 5754 5754 5754 5755 5755 5755 5754 5753 5752 5751 5749 5748 5747 5745 5743 5741 5738 5736 5734 5731 5728 5724 5720 5717 5713 5709 5705 5702 5698 5694 5691